GW2822 Weather Reports


Display with metric or nautical units.
time (UTC)temp
F
wind
direction
speed
MPH
gust
MPH
rain 1hr
in
rain 24hr
in
rain mn
in
humidity
%
barometer
mb
20260506134522 73 73 1.0 4.0 0.00 0.00 0.00 95 1006.6
20260506134038 73 69 1.0 4.0 0.00 0.00 0.00 95 1006.2
20260506133547 73 58 2.0 5.0 0.00 0.00 0.00 95 1006.1
20260506133006 73 86 2.0 5.0 0.00 0.00 0.00 95 1006.1
20260506132522 73 88 1.0 4.0 0.00 0.00 0.00 95 1006.1
20260506132034 73 69 1.0 4.0 0.00 0.00 0.00 96 1006.2
20260506131546 73 68 2.0 4.0 0.00 0.00 0.00 95 1006.2
20260506131010 73 71 1.0 4.0 0.00 0.00 0.00 95 1006.2
20260506130519 73 77 1.0 4.0 0.00 0.00 0.00 95 1006.2
20260506130013 73 82 2.0 4.0 0.00 0.00 0.00 95 1006.0
20260506125526 73 86 1.0 4.0 0.00 0.00 0.00 95 1006.0
20260506125040 73 66 1.0 4.0 0.00 0.00 0.00 95 1005.9
20260506124550 72 90 1.0 7.0 0.00 0.00 0.00 95 1005.8
20260506124009 72 98 2.0 7.0 0.00 0.00 0.00 95 1005.7
20260506123522 72 88 3.0 5.0 0.00 0.00 0.00 95 1005.6
20260506123030 72 102 2.0 4.0 0.00 0.00 0.00 95 1005.7
20260506122547 72 75 2.0 4.0 0.00 0.00 0.00 95 1005.8
20260506122053 72 69 1.0 3.0 0.00 0.00 0.00 95 1005.7
20260506121510 72 133 1.0 3.0 0.00 0.00 0.00 95 1005.7
20260506121026 72 134 1.0 3.0 0.00 0.00 0.00 95 1005.8
20260506120540 72 134 1.0 3.0 0.00 0.00 0.00 95 1005.8
20260506120041 72 163 1.0 2.0 0.00 0.00 0.00 95 1005.7
20260506115552 72 163 1.0 2.0 0.00 0.00 0.00 95 1005.8
20260506115009 73 163 0.0 1.0 0.00 0.00 0.00 95 1005.7
20260506114524 73 163 0.0 1.0 0.00 0.00 0.00 95 1005.7
20260506114036 72 163 0.0 1.0 0.00 0.00 0.00 94 1005.6
20260506113550 72 163 0.0 1.0 0.00 0.00 0.00 94 1005.6
20260506113010 72 163 0.0 1.0 0.00 0.00 0.00 94 1005.7
20260506112526 73 163 0.0 2.0 0.00 0.00 0.00 94 1005.8
20260506112039 73 163 0.0 2.0 0.00 0.00 0.00 94 1005.8
20260506111552 73 163 0.0 2.0 0.00 0.00 0.00 94 1005.8
20260506111008 73 163 0.0 1.0 0.00 0.00 0.00 94 1005.8
20260506110521 73 163 0.0 1.0 0.00 0.00 0.00 94 1005.7
20260506110016 73 163 0.0 1.0 0.00 0.00 0.00 94 1005.8
20260506105531 73 163 0.0 1.0 0.00 0.00 0.00 94 1005.7
20260506105046 73 163 0.0 1.0 0.00 0.00 0.00 94 1005.6
20260506104503 73 163 0.0 2.0 0.00 0.00 0.00 94 1005.5
20260506104021 73 163 0.0 2.0 0.00 0.00 0.00 94 1005.6
20260506103529 73 163 0.0 3.0 0.00 0.00 0.00 94 1005.5
20260506103039 73 163 0.0 5.0 0.00 0.00 0.00 94 1005.5
20260506102556 73 163 2.0 6.0 0.00 0.00 0.00 94 1005.4
20260506102010 73 196 3.0 7.0 0.00 0.00 0.00 94 1005.5
20260506101526 73 185 3.0 6.0 0.00 0.00 0.00 94 1005.5
20260506101035 73 190 1.0 6.0 0.00 0.00 0.00 94 1005.5
20260506100552 73 194 2.0 8.0 0.00 0.00 0.00 94 1005.4
20260506100047 73 190 2.0 8.0 0.00 0.00 0.00 94 1005.3
20260506095557 73 184 3.0 8.0 0.00 0.00 0.00 94 1005.2
20260506095019 73 197 3.0 6.0 0.00 0.00 0.00 94 1005.2
20260506094527 73 177 3.0 6.0 0.00 0.00 0.00 94 1005.4
20260506094042 73 156 2.0 8.0 0.00 0.00 0.00 94 1005.3
20260506093557 73 181 2.0 8.0 0.00 0.00 0.00 94 1005.2
20260506093018 73 227 2.0 7.0 0.00 0.00 0.00 94 1005.1
20260506092533 73 189 3.0 8.0 0.00 0.00 0.00 93 1005.0
20260506092047 73 186 4.0 8.0 0.00 0.00 0.00 93 1005.0
20260506091557 73 157 4.0 8.0 0.00 0.00 0.00 93 1005.1
20260506091505 73 177 4.0 8.0 0.00 0.00 0.00 93 1005.0
20260506091018 73 124 4.0 10.0 0.00 0.00 0.00 93 1005.0
20260506090531 73 152 3.0 10.0 0.00 0.00 0.00 93 1004.9
20260506090025 73 149 4.0 8.0 0.00 0.00 0.00 93 1004.9
20260506085543 73 161 3.0 7.0 0.00 0.00 0.00 93 1004.9
20260506085059 73 164 3.0 8.0 0.00 0.00 0.00 93 1004.9
20260506085002 73 157 4.0 8.0 0.00 0.00 0.00 93 1004.8
20260506084519 73 152 3.0 8.0 0.00 0.00 0.00 93 1004.8
20260506084027 73 136 4.0 8.0 0.00 0.00 0.00 93 1004.9
20260506083548 73 182 2.0 6.0 0.00 0.00 0.00 92 1004.9
20260506083005 73 148 3.0 9.0 0.00 0.00 0.00 92 1004.9
20260506082520 73 138 3.0 13.0 0.00 0.00 0.00 92 1005.0
20260506082029 73 169 6.0 10.0 0.00 0.00 0.00 92 1005.0
20260506081547 74 181 6.0 10.0 0.00 0.00 0.00 92 1004.9
20260506081011 74 131 2.0 11.0 0.00 0.00 0.00 92 1004.9
20260506080517 74 160 7.0 11.0 0.00 0.00 0.00 92 1005.0
20260506073526 74 154 4.0 13.0 0.00 0.00 0.00 92 1005.3
20260506073031 74 130 7.0 13.0 0.00 0.00 0.00 92 1005.4
20260506072548 74 149 5.0 10.0 0.00 0.00 0.00 92 1005.3
20260506072056 74 158 5.0 10.0 0.00 0.00 0.00 92 1005.2
20260506072003 74 165 7.0 10.0 0.00 0.00 0.00 92 1005.3
20260506071519 74 142 4.0 11.0 0.00 0.00 0.00 92 1005.4
20260506071026 74 153 5.0 11.0 0.00 0.00 0.00 91 1005.5
20260506070542 74 148 5.0 8.0 0.00 0.00 0.00 91 1005.6
20260506062035 75 167 6.0 11.0 0.00 0.00 0.00 91 1005.5
20260506061549 75 166 5.0 11.0 0.00 0.00 0.00 91 1005.5
20260506061058 75 141 5.0 11.0 0.00 0.00 0.00 90 1005.5
20260506060513 75 161 5.0 11.0 0.00 0.00 0.00 90 1005.7
20260506051020 75 154 6.0 12.0 0.00 0.00 0.00 90 1005.7
20260506050535 75 66 3.0 10.0 0.00 0.00 0.00 90 1005.8
20260506045057 75 161 4.0 11.0 0.00 0.00 0.00 90 1005.7
20260506044515 75 154 5.0 14.0 0.00 0.00 0.00 90 1005.7
20260506044025 75 131 5.0 14.0 0.00 0.00 0.00 90 1005.7
20260506043537 75 138 4.0 10.0 0.00 0.00 0.00 90 1005.6
20260506043053 75 145 3.0 10.0 0.00 0.00 0.00 90 1005.6
20260506042507 75 175 2.0 7.0 0.00 0.00 0.00 90 1005.6
20260506042024 75 153 1.0 7.0 0.00 0.00 0.00 90 1005.6
20260506041552 75 109 2.0 5.0 0.00 0.00 0.00 90 1005.5
20260506041055 75 142 1.0 7.0 0.00 0.00 0.00 89 1005.4
20260506040517 75 118 2.0 7.0 0.00 0.00 0.00 89 1005.3
20260506040007 75 127 3.0 8.0 0.00 0.00 0.00 89 1005.3
20260506035521 75 132 4.0 8.0 0.00 0.00 0.00 89 1005.2
20260506035036 75 138 3.0 6.0 0.00 0.00 0.00 88 1005.2
20260506034551 75 128 2.0 6.0 0.00 0.00 0.00 88 1005.1
20260506034008 75 142 2.0 5.0 0.00 0.00 0.00 87 1004.9
20260506033524 76 144 1.0 5.0 0.00 0.00 0.00 87 1004.9
20260506033030 76 134 1.0 4.0 0.00 0.00 0.00 87 1005.0
20260506032546 76 133 0.0 3.0 0.00 0.00 0.00 87 1005.0
20260506032058 76 132 1.0 4.0 0.00 0.00 0.00 87 1005.0
20260506031515 76 119 1.0 5.0 0.00 0.00 0.00 87 1004.8